Time,TemperatureF,DewpointF,PressureIn,WindDirection,WindDirectionDegrees,WindSpeedMPH,WindSpeedGustMPH,Humidity,HourlyPrecipIn,Conditions,Clouds,dailyrainin,SoftwareType,DateUTC
2013-07-19 01:32:00,75.0,72.0,29.94,SW,220,2.0,3.0,90,-99.99,,,-99.99,,2013-07-19 05:32:00,
2013-07-19 01:52:00,74.0,72.0,29.93,North,0,0.0,1.0,93,-99.99,,,-99.99,,2013-07-19 05:52:00,
2013-07-19 02:01:00,74.0,72.0,29.93,North,0,0.0,1.0,93,-99.99,,,-99.99,,2013-07-19 06:01:00,
2013-07-19 02:11:00,74.0,72.0,29.93,North,0,0.0,1.0,93,-99.99,,,-99.99,,2013-07-19 06:11:00,
2013-07-19 02:22:00,74.0,72.0,29.94,North,0,0.0,1.0,92,-99.99,,,-99.99,,2013-07-19 06:22:00,
2013-07-19 02:32:00,74.0,72.0,29.94,North,0,0.0,3.0,93,-99.99,,,-99.99,,2013-07-19 06:32:00,
2013-07-19 02:52:00,75.0,73.0,29.94,West,270,1.0,2.0,93,-99.99,,,-99.99,,2013-07-19 06:52:00,
2013-07-19 03:01:00,75.0,73.0,29.94,West,270,1.0,2.0,93,-99.99,,,-99.99,,2013-07-19 07:01:00,
2013-07-19 03:12:00,75.0,73.0,29.94,West,270,1.0,2.0,93,-99.99,,,-99.99,,2013-07-19 07:12:00,
2013-07-19 03:22:00,74.0,72.0,29.94,North,0,0.0,1.0,93,-99.99,,,-99.99,,2013-07-19 07:22:00,
2013-07-19 03:32:00,75.0,73.0,29.93,North,0,0.0,1.0,93,-99.99,,,-99.99,,2013-07-19 07:32:00,
2013-07-19 03:43:00,74.0,72.0,29.93,North,0,0.0,1.0,93,-99.99,,,-99.99,,2013-07-19 07:43:00,
2013-07-19 03:53:00,74.0,73.0,29.93,North,0,0.0,1.0,94,-99.99,,,-99.99,,2013-07-19 07:53:00,
2013-07-19 04:01:00,74.0,73.0,29.93,North,0,0.0,1.0,94,-99.99,,,-99.99,,2013-07-19 08:01:00,
2013-07-19 04:11:00,74.0,73.0,29.93,North,0,0.0,1.0,94,-99.99,,,-99.99,,2013-07-19 08:11:00,
2013-07-19 04:21:00,76.0,74.0,29.93,North,0,0.0,1.0,94,-99.99,,,-99.99,,2013-07-19 08:21:00,
2013-07-19 04:43:00,74.0,72.0,29.93,North,0,0.0,1.0,95,-99.99,,,-99.99,,2013-07-19 08:43:00,
2013-07-19 04:52:00,74.0,72.0,29.93,North,0,0.0,1.0,95,-99.99,,,-99.99,,2013-07-19 08:52:00,
2013-07-19 05:02:00,74.0,73.0,29.92,SSW,210,3.0,5.0,95,-99.99,,,-99.99,,2013-07-19 09:02:00,
2013-07-19 05:11:00,74.0,73.0,29.92,SSW,210,3.0,5.0,95,-99.99,,,-99.99,,2013-07-19 09:11:00,
2013-07-19 05:22:00,75.0,74.0,29.92,WSW,240,5.0,6.0,96,-99.99,,,-99.99,,2013-07-19 09:22:00,
2013-07-19 05:32:00,75.0,74.0,29.92,West,260,6.0,7.0,95,-99.99,,,-99.99,,2013-07-19 09:32:00,
2013-07-19 05:52:00,75.0,74.0,29.92,WSW,250,5.0,7.0,95,-99.99,,,-99.99,,2013-07-19 09:52:00,
2013-07-19 06:01:00,74.0,73.0,29.92,SW,220,7.0,8.0,96,-99.99,,,-99.99,,2013-07-19 10:01:00,
2013-07-19 06:11:00,74.0,73.0,29.92,SW,220,7.0,8.0,96,-99.99,,,-99.99,,2013-07-19 10:11:00,
2013-07-19 06:32:00,75.0,74.0,29.92,WSW,250,8.0,9.0,96,-99.99,,,-99.99,,2013-07-19 10:32:00,
2013-07-19 06:43:00,75.0,74.0,29.92,WSW,250,8.0,9.0,96,-99.99,,,-99.99,,2013-07-19 10:43:00,
2013-07-19 07:32:00,78.0,74.0,29.91,WSW,250,12.0,12.0,88,-99.99,,,-99.99,,2013-07-19 11:32:00,
2013-07-19 07:52:00,76.0,72.0,29.91,WSW,240,12.0,12.0,88,-99.99,,,-99.99,,2013-07-19 11:52:00,
2013-07-19 08:01:00,77.0,73.0,29.91,WSW,250,13.0,13.0,86,-99.99,,,-99.99,,2013-07-19 12:01:00,
2013-07-19 08:12:00,77.0,73.0,29.91,WSW,250,13.0,13.0,86,-99.99,,,-99.99,,2013-07-19 12:12:00,
2013-07-19 08:32:00,76.0,72.0,29.91,WSW,250,13.0,14.0,88,-99.99,,,-99.99,,2013-07-19 12:32:00,
2013-07-19 08:52:00,78.0,74.0,29.91,West,260,14.0,16.0,87,-99.99,,,-99.99,,2013-07-19 12:52:00,
2013-07-19 09:02:00,78.0,74.0,29.91,West,260,14.0,16.0,87,-99.99,,,-99.99,,2013-07-19 13:02:00,
2013-07-19 09:11:00,78.0,74.0,29.91,West,260,14.0,16.0,87,-99.99,,,-99.99,,2013-07-19 13:11:00,
2013-07-19 09:22:00,79.0,74.0,29.91,West,260,16.0,18.0,86,-99.99,,,-99.99,,2013-07-19 13:22:00,
2013-07-19 09:53:00,78.0,74.0,29.91,WSW,250,17.0,17.0,88,-99.99,,,-99.99,,2013-07-19 13:53:00,
2013-07-19 10:01:00,78.0,74.0,29.91,WSW,250,17.0,17.0,88,-99.99,,,-99.99,,2013-07-19 14:01:00,
2013-07-19 10:11:00,78.0,74.0,29.91,WSW,250,17.0,18.0,89,-99.99,,,-99.99,,2013-07-19 14:11:00,
2013-07-19 10:22:00,78.0,74.0,29.91,WSW,250,17.0,18.0,89,-99.99,,,-99.99,,2013-07-19 14:22:00,
2013-07-19 10:33:00,76.0,73.0,29.91,WSW,250,16.0,17.0,90,-99.99,,,-99.99,,2013-07-19 14:33:00,
2013-07-19 10:43:00,76.0,73.0,29.91,WSW,250,16.0,17.0,90,-99.99,,,-99.99,,2013-07-19 14:43:00,
2013-07-19 10:52:00,76.0,73.0,29.91,WSW,250,16.0,17.0,90,-99.99,,,-99.99,,2013-07-19 14:52:00,
2013-07-19 11:02:00,77.0,74.0,29.90,West,260,16.0,17.0,88,-99.99,,,-99.99,,2013-07-19 15:02:00,
2013-07-19 11:11:00,77.0,74.0,29.90,West,260,16.0,17.0,88,-99.99,,,-99.99,,2013-07-19 15:11:00,
2013-07-19 11:32:00,76.0,72.0,29.90,WSW,240,15.0,16.0,89,-99.99,,,-99.99,,2013-07-19 15:32:00,
2013-07-19 11:43:00,76.0,72.0,29.90,WSW,240,15.0,16.0,89,-99.99,,,-99.99,,2013-07-19 15:43:00,
2013-07-19 12:01:00,78.0,74.0,29.90,West,260,17.0,18.0,87,-99.99,,,-99.99,,2013-07-19 16:01:00,
2013-07-19 12:11:00,78.0,74.0,29.90,West,260,17.0,18.0,87,-99.99,,,-99.99,,2013-07-19 16:11:00,
2013-07-19 12:21:00,79.0,74.0,29.89,West,260,17.0,18.0,84,-99.99,,,-99.99,,2013-07-19 16:21:00,
2013-07-19 12:32:00,79.0,74.0,29.89,West,260,17.0,18.0,84,-99.99,,,-99.99,,2013-07-19 16:32:00,
2013-07-19 13:02:00,79.0,74.0,29.88,WSW,250,14.0,15.0,82,-99.99,,,-99.99,,2013-07-19 17:02:00,
2013-07-19 13:11:00,79.0,74.0,29.88,WSW,250,14.0,15.0,82,-99.99,,,-99.99,,2013-07-19 17:11:00,
2013-07-19 13:22:00,81.0,74.0,29.87,West,260,15.0,16.0,78,-99.99,,,-99.99,,2013-07-19 17:22:00,
2013-07-19 13:32:00,81.0,74.0,29.87,West,260,15.0,16.0,78,-99.99,,,-99.99,,2013-07-19 17:32:00,
2013-07-19 13:43:00,80.0,73.0,29.87,WSW,250,15.0,15.0,79,-99.99,,,-99.99,,2013-07-19 17:43:00,
2013-07-19 13:52:00,80.0,73.0,29.87,WSW,250,15.0,15.0,79,-99.99,,,-99.99,,2013-07-19 17:52:00,
2013-07-19 14:01:00,80.0,73.0,29.87,WSW,250,16.0,17.0,80,-99.99,,,-99.99,,2013-07-19 18:01:00,
2013-07-19 14:32:00,80.0,72.0,29.86,WSW,240,15.0,16.0,78,-99.99,,,-99.99,,2013-07-19 18:32:00,
2013-07-19 14:42:00,81.0,73.0,29.85,SSW,210,15.0,17.0,75,-99.99,,,-99.99,,2013-07-19 18:42:00,
2013-07-19 15:01:00,81.0,75.0,29.84,SW,220,18.0,21.0,80,-99.99,,,-99.99,,2013-07-19 19:01:00,
2013-07-19 15:11:00,81.0,75.0,29.84,SW,220,18.0,21.0,80,-99.99,,,-99.99,,2013-07-19 19:11:00,
2013-07-19 15:21:00,79.0,74.0,29.83,SW,220,17.0,18.0,84,-99.99,,,-99.99,,2013-07-19 19:21:00,
2013-07-19 15:43:00,80.0,74.0,29.83,SW,220,16.0,18.0,83,-99.99,,,-99.99,,2013-07-19 19:43:00,
2013-07-19 16:01:00,80.0,74.0,29.81,SSW,210,20.0,21.0,81,-99.99,,,-99.99,,2013-07-19 20:01:00,
2013-07-19 16:11:00,80.0,74.0,29.81,SSW,210,20.0,21.0,81,-99.99,,,-99.99,,2013-07-19 20:11:00,
2013-07-19 16:22:00,80.0,74.0,29.80,SSW,210,20.0,21.0,80,-99.99,,,-99.99,,2013-07-19 20:22:00,
2013-07-19 16:43:00,80.0,74.0,29.80,SSW,210,21.0,22.0,81,-99.99,,,-99.99,,2013-07-19 20:43:00,
2013-07-19 16:52:00,79.0,73.0,29.79,SSW,200,18.0,21.0,82,-99.99,,,-99.99,,2013-07-19 20:52:00,
2013-07-19 17:01:00,79.0,73.0,29.79,SSW,200,18.0,21.0,82,-99.99,,,-99.99,,2013-07-19 21:01:00,
2013-07-19 17:11:00,79.0,73.0,29.79,SSW,200,18.0,21.0,82,-99.99,,,-99.99,,2013-07-19 21:11:00,
2013-07-19 17:21:00,79.0,73.0,29.78,SSW,210,23.0,-999.0,82,-99.99,,,-99.99,,2013-07-19 21:21:00,
2013-07-19 17:52:00,79.0,72.0,29.77,SSW,210,24.0,27.0,81,-99.99,,,-99.99,,2013-07-19 21:52:00,
2013-07-19 18:01:00,78.0,72.0,29.76,SSW,210,25.0,28.0,82,-99.99,,,-99.99,,2013-07-19 22:01:00,
2013-07-19 18:11:00,78.0,72.0,29.76,SSW,210,25.0,28.0,82,-99.99,,,-99.99,,2013-07-19 22:11:00,
2013-07-19 18:32:00,79.0,72.0,29.75,SSW,210,27.0,29.0,80,-99.99,,,-99.99,,2013-07-19 22:32:00,
2013-07-19 18:52:00,79.0,72.0,29.75,SSW,210,27.0,29.0,80,-99.99,,,-99.99,,2013-07-19 22:52:00,
2013-07-19 19:01:00,78.0,72.0,29.75,SSW,210,25.0,28.0,80,-99.99,,,-99.99,,2013-07-19 23:01:00,
2013-07-19 19:11:00,78.0,72.0,29.75,SSW,210,25.0,28.0,80,-99.99,,,-99.99,,2013-07-19 23:11:00,
2013-07-19 19:21:00,78.0,72.0,29.75,SSW,210,27.0,29.0,81,-99.99,,,-99.99,,2013-07-19 23:21:00,
2013-07-19 19:30:00,76.0,72.0,29.76,SSW,210,25.0,28.0,84,-99.99,,,-99.99,,2013-07-19 23:30:00,
2013-07-19 19:32:00,78.0,72.0,29.75,SSW,210,27.0,29.0,81,-99.99,,,-99.99,,2013-07-19 23:32:00,
2013-07-19 19:52:00,76.0,72.0,29.76,SSW,210,25.0,28.0,84,-99.99,,,-99.99,,2013-07-19 23:52:00,
2013-07-19 20:01:00,76.0,72.0,29.76,SSW,210,25.0,28.0,84,-99.99,,,-99.99,,2013-07-20 00:01:00,
2013-07-19 20:11:00,76.0,72.0,29.76,SSW,210,25.0,28.0,84,-99.99,,,-99.99,,2013-07-20 00:11:00,
2013-07-19 20:21:00,76.0,72.0,29.76,SSW,210,25.0,28.0,84,-99.99,,,-99.99,,2013-07-20 00:21:00,